This is the latest recevied weather packets stored in our database for station/object DO8TBO-15. If no packets are shown the sender has not sent any weather packets the latest 10 day(s).
| Time | Temp. | Humidity | Pressure | Rain* | Wind** | Luminosity | Snow |
|---|---|---|---|---|---|---|---|
| 1777553770 | 18.33° C | - | 1028.4 hPa | 0 mm | - | - | - |
| 1777553166 | 17.78° C | - | 1028.7 hPa | 0 mm | - | - | - |
| 1777552562 | 17.78° C | - | 1028.7 hPa | 0 mm | - | - | - |
| 1777551959 | 17.78° C | - | 1028.8 hPa | 0 mm | - | - | - |
| 1777551359 | 17.22° C | - | 1028.9 hPa | 0 mm | - | - | - |
| 1777550751 | 17.22° C | - | 1029.1 hPa | 0 mm | - | - | - |
| 1777550148 | 16.67° C | - | 1029.1 hPa | 0 mm | - | - | - |
| 1777549544 | 16.67° C | - | 1029.3 hPa | 0 mm | - | - | - |
| 1777548940 | 16.11° C | - | 1029.5 hPa | 0 mm | - | - | - |
| 1777548336 | 16.11° C | - | 1029.6 hPa | 0 mm | - | - | - |
| 1777547732 | 16.11° C | - | 1029.6 hPa | 0 mm | - | - | - |
| 1777547159 | 16.11° C | - | 1029.6 hPa | 0 mm | - | - | - |
| 1777546555 | 15.56° C | - | 1029.6 hPa | 0 mm | - | - | - |
| 1777545952 | 15.56° C | - | 1029.6 hPa | 0 mm | - | - | - |
| 1777544744 | 15.56° C | - | 1029.7 hPa | 0 mm | - | - | - |
| 1777544140 | 15° C | - | 1030 hPa | 0 mm | - | - | - |
| 1777543536 | 14.44° C | - | 1030 hPa | 0 mm | - | - | - |
| 1777542933 | 14.44° C | - | 1030.1 hPa | 0 mm | - | - | - |
| 1777542329 | 13.89° C | - | 1030.2 hPa | 0 mm | - | - | - |
| 1777541725 | 13.33° C | - | 1030.4 hPa | 0 mm | - | - | - |
| 1777540517 | 12.78° C | - | 1030.4 hPa | 0 mm | - | - | - |
| 1777539974 | 13.33° C | - | 1030.5 hPa | 0 mm | - | - | - |
| 1777539370 | 12.78° C | - | 1030.5 hPa | 0 mm | - | - | - |
| 1777538767 | 12.22° C | - | 1030.6 hPa | 0 mm | - | - | - |
| 1777538162 | 12.22° C | - | 1030.6 hPa | 0 mm | - | - | - |
* Rain latest hour (hover to see other rain measurements)
** Current wind speed in m/s (hover to see current wind gust speed)